Location: Winthrop
(48.4780°N, 120.1850°W)
Time: 11:24:50
(UTC-07:00)

Vanguard 3 - Pass Details

Date: 10 February 2023
Orbit: 508 x 3249 km, 33.4° (Epoch: 27 March)

Event Time Altitude Azimuth Distance (km) Brightness Sun altitude
Rises 21:43:29 0° 262° (W) 4,664 11.5 -43.6°
Reaches altitude 10° 21:46:53 10° 250° (WSW) 4,064 11.0 -44.1°
Enters shadow 21:53:23 24° 214° (SSW) 3,687 10.3 -44.9°
